Location: Unspecified
(35.6961°N, 0.0000°E)
Time: 12:46:03
(UTC+00:00)

Altair - Pass Details

Date: 21 May 2019
Orbit: 1501 x 1683 km, 47.2° (Epoch: 25 June)

Event Time Altitude Azimuth Distance (km) Brightness Sun altitude
Rises 08:16:12 0° 293° (WNW) 4,936 9.7 39.6°
Reaches altitude 10° 08:19:37 10° 300° (WNW) 3,940 9.3 40.3°
Maximum altitude 08:29:15 46° 11° (NNE) 2,113 8.8 42.2°
Drops below altitude 10° 08:38:36 10° 83° (E) 3,831 10.6 44.1°
Sets 08:41:53 0° 90° (E) 4,790 10.8 44.8°
